Temp
11 11 10 10 10 9 8 7 6 6 6 5 5 4 3 3 3 3 3 3 2 2
11 10 10 10 9 9 8 7 6 6 5 5 4 4 3 3 3 3 3 2 2 2
11 10 10 9 9 8 7 7 6 5 5 5 4 4 3 3 3 3 3 2 2 2
10 10 9 9 8 8 7 6 6 5 5 4 4 4 3 3 3 2 2 2 2 2
10 9 9 8 8 7 6 6 6 5 5 4 4 3 3 3 3 2 2 2 2 2
10 9 8 8 7 6 6 6 5 5 5 4 4 3 3 3 2 2 2 1 1 1
10 9 9 8 7 6 6 6 5 5 4 4 3 3 3 2 2 1 1 1 1 2
11 9 8 8 7 6 6 5 5 4 4 4 3 3 2 2 1 1 1 1 2 1
10 9 8 7 7 6 6 5 5 4 4 3 3 2 2 1 1 1 1 1 1 1
10 9 8 7 7 6 6 5 5 4 3 3 3 2 1 1 1 1 1 1 1 1
10 9 8 7 6 6 5 5 4 4 3 3 2 2 1 1 0 0 0 0 0 0
10 9 8 7 6 6 5 4 4 4 3 2 2 1 1 0 0 -0 -0 -1 -0 -0
10 9 8 7 6 5 5 4 3 3 2 2 1 1 1 0 -0 -1 -1 -1 -1 -1
9 8 7 7 5 5 4 3 3 2 2 1 1 1 0 0 -1 -1 -1 -0 -0 -1
Height
1483 1487 1490 1493 1494 1495 1497 1499 1500 1500 1501 1501 1501 1501 1500 1499 1498 1496 1494 1492 1490 1488
1475 1479 1483 1487 1489 1490 1492 1493 1494 1495 1495 1496 1496 1496 1495 1493 1491 1489 1487 1485 1483 1481
1469 1474 1478 1481 1483 1485 1487 1488 1488 1490 1490 1491 1491 1490 1489 1487 1485 1482 1480 1477 1475 1474
1463 1468 1472 1475 1478 1480 1482 1482 1483 1484 1485 1485 1485 1484 1483 1481 1478 1476 1473 1472 1469 1466
1457 1463 1466 1469 1473 1475 1476 1478 1479 1479 1480 1480 1479 1478 1477 1474 1472 1469 1467 1464 1462 1460
1450 1455 1459 1463 1467 1469 1471 1472 1473 1474 1474 1474 1474 1472 1470 1468 1465 1463 1461 1458 1456 1453
1443 1448 1453 1458 1461 1464 1466 1467 1468 1468 1468 1468 1468 1466 1463 1461 1458 1456 1454 1452 1449 1446
1436 1443 1448 1452 1455 1459 1461 1462 1463 1463 1463 1463 1461 1460 1457 1454 1452 1451 1448 1446 1443 1440
1431 1436 1441 1446 1450 1453 1455 1456 1457 1457 1458 1457 1456 1454 1451 1449 1448 1445 1442 1439 1436 1433
1425 1430 1435 1441 1446 1448 1450 1451 1452 1453 1453 1451 1450 1448 1445 1444 1442 1439 1436 1432 1428 1424
1419 1425 1431 1436 1440 1443 1445 1446 1446 1448 1447 1446 1445 1442 1440 1439 1436 1433 1430 1426 1421 1418
1411 1418 1425 1430 1434 1437 1440 1440 1442 1442 1441 1440 1439 1437 1435 1433 1430 1426 1422 1419 1416 1412
1404 1412 1418 1425 1429 1432 1434 1435 1436 1436 1436 1434 1434 1432 1430 1427 1423 1419 1416 1413 1410 1408
1400 1407 1414 1420 1424 1427 1429 1430 1431 1431 1430 1430 1429 1427 1424 1421 1417 1414 1411 1409 1405 1401
Wind_Speed
33 30 25 21 19 17 15 13 12 12 13 14 13 14 15 17 20 21 23 24 25 26
34 31 26 22 20 17 15 14 13 14 15 15 15 17 18 21 22 23 26 28 26 26
34 29 24 22 21 17 13 14 14 15 16 16 17 19 21 21 23 26 27 25 25 26
33 29 25 24 21 17 14 15 15 15 16 17 18 19 20 22 25 28 26 27 27 27
31 28 26 25 22 18 15 15 15 15 16 17 17 18 21 24 28 27 27 25 26 26
32 30 28 25 22 19 17 16 16 16 16 15 17 20 24 27 26 25 24 24 25 27
34 31 29 24 22 20 18 17 16 16 15 16 19 23 26 25 23 22 23 23 25 26
32 29 27 24 23 21 20 18 17 16 16 18 21 24 23 22 21 22 24 25 25 28
33 30 28 26 25 22 20 18 17 17 17 20 22 20 22 19 19 22 25 26 30 34
33 31 29 27 26 23 21 18 17 17 19 21 20 19 19 17 19 21 26 30 33 30
34 31 29 28 26 23 20 18 17 18 20 19 17 18 19 17 19 23 30 32 25 27
33 31 30 30 26 23 20 17 17 19 18 16 17 19 18 19 22 30 29 23 25 26
31 30 30 28 24 21 18 16 17 17 16 15 17 19 18 21 25 22 24 24 24 26
31 28 27 25 22 18 15 16 15 15 15 16 18 18 18 24 20 19 22 21 25 28
Wind_Direction
231 232 232 233 236 238 237 239 245 260 271 280 282 284 293 294 299 302 304 304 303 299
227 227 227 231 234 234 237 242 251 262 272 281 280 286 292 297 299 300 303 301 301 299
226 226 227 230 231 233 240 244 253 263 273 278 282 288 294 296 300 302 305 303 301 298
223 224 227 230 229 232 243 247 252 265 272 277 284 291 294 299 301 304 302 302 301 299
221 223 227 227 226 231 245 249 256 267 272 280 288 291 295 300 303 303 303 302 301 304
218 222 224 225 224 230 247 252 260 264 272 280 288 295 300 304 304 303 304 305 307 308
217 221 222 221 225 232 248 254 260 262 271 283 294 300 304 305 305 306 307 307 307 308
218 219 220 220 226 234 248 256 259 264 275 287 298 302 306 309 308 310 308 305 302 301
216 217 217 220 225 235 246 252 260 270 279 292 300 301 310 308 309 305 301 303 303 303
216 216 215 220 225 235 245 253 263 271 283 295 297 309 314 307 304 302 298 302 309 311
214 215 215 219 224 237 243 255 264 273 289 292 302 315 314 308 306 306 306 309 309 309
210 211 214 217 226 237 244 255 264 282 287 295 309 319 315 314 313 310 310 316 315 320
207 209 213 219 230 235 247 254 272 280 291 301 309 318 314 318 322 317 320 317 317 319
203 208 213 221 226 237 241 261 271 284 295 301 310 311 311 325 313 313 314 313 320 321